Lyndonville, VT

3:39 AM EST on February 24, 2017 (GMT -0500)
Lyndonville

Weather History for KCDA - February, 2013

Change the Weather History Date:

Monday, February 11, 2013

  Actual Average (K1V4) Record (K1V4)
Temperature  
Mean Temperature 18 °F -  
Max Temperature 31 °F 27 °F 55 °F (1966)
Min Temperature 5 °F 4 °F -29 °F (1979)
Degree Days  
Heating Degree Days 48    
Moisture  
Dew Point 13 °F    
Average Humidity 77    
Maximum Humidity 92    
Minimum Humidity 42    
Precipitation  
Precipitation 0.00 in - - ()
Sea Level Pressure  
Sea Level Pressure 29.94 in    
Wind  
Wind Speed 3 mph (SSW)    
Max Wind Speed 13 mph    
Max Gust Speed 17 mph    
Visibility 7 miles    
Events Snow    
Averages and records for this station are not official NWS values.
T = Trace of Precipitation, MM = Missing Value Source: NWS Daily Summary

Daily Weather History Graph

Daily Weather History Graph

Search for Another Location

Airport or City:

Trip Planner

Search our weather history database for the weather conditions in past years. The results will help you decide how hot, cold, wet, or windy it might be!

Date:

Astronomy

Feb. 11, 2013 Rise Set
Actual Time 6:53 AM EST 5:11 PM EST
Civil Twilight 6:23 AM EST 5:41 PM EST
Nautical Twilight 5:49 AM EST 6:16 PM EST
Astronomical Twilight 5:15 AM EST 6:49 PM EST
Moon 7:10 AM EST (2/11) 7:12 PM EST (2/11)
Length of Visible Light 11h 18m
Length of Day
10h 17m
Waxing Crescent, 3% of the Moon is Illuminated
Feb 11
Waxing Crescent
Feb 17
First Quarter
Feb 25
Full
Mar 4
Last Quarter
Mar 11
New

Hourly Weather History & Observations

Time (EST) Temp. Windchill Dew Point Humidity Pressure Visibility Wind Dir Wind Speed Gust Speed Precip Events Conditions
12:15 AM 9.5 °F - 1.2 °F 69% 30.25 in 10.0 mi Calm Calm - N/A   Clear
12:35 AM 9.3 °F - 0.5 °F 67% 30.25 in 10.0 mi Calm Calm - N/A   Clear
12:55 AM 8.8 °F - 1.4 °F 72% 30.24 in 10.0 mi Calm Calm - N/A   Clear
1:15 AM 5.5 °F -1.5 °F -1.7 °F 72% 30.23 in 10.0 mi ENE 3.5 mph - N/A   Clear
1:35 AM 6.3 °F -0.7 °F -0.6 °F 73% 30.22 in 10.0 mi SW 3.5 mph - N/A   Clear
1:55 AM 7.2 °F - -0.6 °F 71% 30.21 in 10.0 mi Calm Calm - N/A   Clear
2:15 AM 7.9 °F - -0.4 °F 69% 30.20 in 10.0 mi Calm Calm - N/A   Clear
2:35 AM 6.4 °F - -1.3 °F 71% 30.20 in 10.0 mi Calm Calm - N/A   Clear
3:15 AM 6.6 °F -0.3 °F -0.8 °F 72% 30.17 in 10.0 mi SW 3.5 mph - N/A   Clear
3:35 AM 7.0 °F - -0.4 °F 72% 30.16 in 10.0 mi Calm Calm - N/A   Scattered Clouds
3:55 AM 6.4 °F - -0.4 °F 74% 30.15 in 10.0 mi Calm Calm - N/A   Mostly Cloudy
4:15 AM 7.3 °F - 0.7 °F 74% 30.14 in 10.0 mi Calm Calm - N/A   Overcast
4:35 AM 7.9 °F - 0.5 °F 72% 30.13 in 10.0 mi Calm Calm - N/A   Overcast
4:55 AM 9.3 °F - 1.4 °F 70% 30.11 in 10.0 mi Calm Calm - N/A   Overcast
5:15 AM 9.5 °F - 1.9 °F 71% 30.09 in 10.0 mi Calm Calm - N/A   Overcast
5:35 AM 8.6 °F - 1.9 °F 74% 30.08 in 10.0 mi Calm Calm - N/A   Overcast
5:55 AM 9.0 °F 0.6 °F 1.8 °F 73% 30.08 in 10.0 mi SW 4.6 mph - N/A   Overcast
6:15 AM 9.0 °F 2.4 °F 1.8 °F 73% 30.07 in 10.0 mi SW 3.5 mph - N/A   Overcast
6:35 AM 9.5 °F - 2.1 °F 72% 30.06 in 10.0 mi Calm Calm - N/A   Overcast
6:55 AM 9.5 °F 3.0 °F 1.8 °F 71% 30.05 in 10.0 mi WSW 3.5 mph - N/A   Overcast
7:15 AM 10.9 °F 4.7 °F 2.5 °F 69% 30.04 in 10.0 mi WSW 3.5 mph - N/A   Overcast
7:35 AM 11.5 °F 3.5 °F 2.3 °F 67% 30.03 in 10.0 mi SW 4.6 mph - N/A   Overcast
7:55 AM 17.6 °F 12.3 °F 2.3 °F 51% 30.03 in 10.0 mi WSW 3.5 mph - N/A   Overcast
8:15 AM 16.0 °F 7.4 °F 2.7 °F 56% 30.02 in 10.0 mi WSW 5.8 mph - N/A   Overcast
8:35 AM 18.0 °F 9.8 °F 1.8 °F 49% 30.00 in 10.0 mi WSW 5.8 mph - N/A   Overcast
8:55 AM 19.4 °F 10.4 °F 2.5 °F 48% 29.99 in 10.0 mi WSW 6.9 mph - N/A   Overcast
9:15 AM 21.0 °F 13.4 °F 1.4 °F 43% 29.98 in 10.0 mi WSW 5.8 mph - N/A   Overcast
9:35 AM 21.9 °F 13.4 °F 2.1 °F 42% 29.96 in 10.0 mi WSW 6.9 mph - N/A   Overcast
9:55 AM 23.0 °F 12.4 °F 5.9 °F 48% 29.96 in 5.0 mi WSW 10.4 mph 16.1 mph N/A Snow Light Snow
10:15 AM 22.1 °F 10.0 °F 16.2 °F 78% 29.94 in 1.0 mi WSW 12.7 mph 17.3 mph N/A Snow Light Snow
10:35 AM 22.1 °F 11.3 °F 18.0 °F 84% 29.93 in 1.2 mi WSW 10.4 mph - N/A Snow Light Snow
10:55 AM 23.0 °F 13.1 °F 19.4 °F 86% 29.91 in 2.0 mi WSW 9.2 mph - N/A Snow Light Snow
11:15 AM 24.1 °F 16.0 °F 20.5 °F 86% 29.90 in 1.2 mi WSW 6.9 mph - N/A Snow Light Snow
11:35 AM 24.4 °F 20.1 °F 21.0 °F 87% 29.87 in 0.8 mi SW 3.5 mph - N/A Snow Snow
11:55 AM 25.5 °F - 22.1 °F 87% 29.85 in 0.5 mi Calm Calm - N/A Snow Snow
12:15 PM 26.6 °F 20.0 °F 23.5 °F 88% 29.84 in 0.8 mi South 5.8 mph - N/A Snow Light Snow
12:35 PM 27.3 °F 19.9 °F 24.3 °F 88% 29.82 in 1.5 mi South 6.9 mph - N/A Snow Light Snow
12:55 PM 28.2 °F 21.0 °F 24.8 °F 87% 29.81 in 2.0 mi South 6.9 mph - N/A Snow Light Snow
1:15 PM 28.4 °F 19.7 °F 25.2 °F 88% 29.80 in 2.0 mi SSE 9.2 mph - N/A Snow Light Snow
1:35 PM 28.8 °F 20.9 °F 25.5 °F 88% 29.79 in 1.8 mi SSE 8.1 mph - N/A   Overcast
1:55 PM 29.3 °F 20.8 °F 25.9 °F 87% 29.77 in 2.5 mi SSE 9.2 mph 16.1 mph N/A   Overcast
2:15 PM 29.3 °F 21.5 °F 26.2 °F 88% 29.75 in 4.0 mi South 8.1 mph - N/A   Overcast
2:35 PM 29.5 °F 21.8 °F 26.6 °F 89% 29.74 in 5.0 mi SSE 8.1 mph - N/A   Overcast
2:55 PM 29.3 °F 21.5 °F 26.6 °F 90% 29.73 in 5.0 mi South 8.1 mph - N/A   Overcast
3:15 PM 29.5 °F 21.8 °F 26.8 °F 90% 29.72 in 5.0 mi SSE 8.1 mph - N/A   Overcast
3:35 PM 29.8 °F 23.9 °F 27.3 °F 90% 29.70 in 3.0 mi South 5.8 mph - N/A   Overcast
3:55 PM 30.2 °F 22.6 °F 27.5 °F 90% 29.69 in 2.5 mi South 8.1 mph - N/A   Overcast
4:15 PM 30.2 °F 22.6 °F 27.7 °F 90% 29.69 in 4.0 mi South 8.1 mph - N/A   Overcast
4:35 PM 30.6 °F 24.7 °F 28.0 °F 90% 29.68 in 5.0 mi South 5.8 mph - N/A   Overcast
4:55 PM 30.0 °F 26.5 °F 27.5 °F 90% 29.67 in 3.0 mi ESE 3.5 mph - N/A   Overcast
5:55 PM 30.2 °F 26.7 °F 28.0 °F 92% 29.63 in 7.0 mi SSE 3.5 mph - N/A   Overcast
6:15 PM 30.2 °F - 28.2 °F 92% 29.64 in 10.0 mi Calm Calm - N/A   Overcast
6:35 PM 30.6 °F 25.8 °F 28.2 °F 91% 29.63 in 10.0 mi South 4.6 mph - N/A   Overcast
6:55 PM 30.6 °F 24.7 °F 28.2 °F 91% 29.63 in 10.0 mi South 5.8 mph - N/A   Overcast
7:15 PM 30.6 °F 25.8 °F 28.2 °F 91% 29.63 in 4.0 mi South 4.6 mph - N/A   Overcast
7:35 PM 31.1 °F - 28.9 °F 92% 29.61 in 3.0 mi Calm Calm - N/A   Overcast
7:55 PM - - - N/A% - - North - - N/A   Unknown
8:15 PM - - - N/A% - - North - - N/A   Unknown
8:35 PM - - - N/A% - - North - - N/A   Unknown
8:55 PM - - - N/A% - - North - - N/A   Unknown
9:15 PM - - - N/A% - - North - - N/A   Unknown
9:35 PM - - - N/A% - - North - - N/A   Unknown
9:55 PM - - - N/A% - - North - - N/A   Unknown
10:15 PM - - - N/A% - - North - - N/A   Unknown
10:35 PM - - - N/A% - - North - - N/A   Unknown
10:55 PM - - - N/A% - - North - - N/A   Unknown
11:15 PM - - - N/A% - - North - - N/A   Unknown
11:35 PM - - - N/A% - - North - - N/A   Unknown
11:55 PM - - - N/A% - - North - - N/A   Unknown